WetterOnline ( https://www.wetteronline.de )

Wetter aktuell Mittenwald

Aktuelles Wetter: Garmisch-Partenkirchen (719m)

6-stündlich | Neueste Meldungen
Ortszeit Temperatur Wetter
Fr, 05.03. 1:00 5.2° C leichter Regen
Do, 04.03. 19:00 8.1° C bewölkt
Do, 04.03. 13:00 12.7° C bewölkt
Do, 04.03. 7:00 0.3° C bedeckt
Do, 04.03. 1:00 0.5° C bedeckt
Mi, 03.03. 19:00 5.1° C bedeckt
Mi, 03.03. 13:00 13.1° C wolkig
Mi, 03.03. 7:00 -2.0° C bedeckt
Ortszeit Temperatur Wetter
Fr, 05.03. 2:30 4.5° C leichter Regen
Fr, 05.03. 2:20 4.5° C leichter Regen
Fr, 05.03. 2:10 4.4° C leichter Regen
Fr, 05.03. 2:00 4.4° C leichter Regen
Fr, 05.03. 1:50 4.4° C leichter Regen
Fr, 05.03. 1:40 4.6° C leichter Regen
Fr, 05.03. 1:30 4.8° C leichter Regen
Fr, 05.03. 1:00 5.2° C leichter Regen
Fr, 05.03. 0:30 6.7° C bedeckt
Fr, 05.03. 0:00 4.5° C bedeckt
Do, 04.03. 23:30 4.2° C bedeckt
Ortszeit Relative Feuchte Sichtweite
Fr, 05.03. 1:00 83% 10 km
Do, 04.03. 19:00 60% 35 km
Do, 04.03. 13:00 26% 55 km
Do, 04.03. 7:00 84% 60 km
Do, 04.03. 1:00 82% 55 km
Mi, 03.03. 19:00 68% 45 km
Mi, 03.03. 13:00 27% 55 km
Mi, 03.03. 7:00 85% >70 km
Ortszeit Relative Feuchte Sichtweite
Fr, 05.03. 2:30 93% 14 km
Fr, 05.03. 2:20 93% -
Fr, 05.03. 2:10 93% -
Fr, 05.03. 2:00 92% 29 km
Fr, 05.03. 1:50 92% -
Fr, 05.03. 1:40 90% -
Fr, 05.03. 1:30 87% 15 km
Fr, 05.03. 1:00 83% 10 km
Fr, 05.03. 0:30 66% 40 km
Fr, 05.03. 0:00 75% 30 km
Do, 04.03. 23:30 78% 30 km
Ortszeit Niederschlagsmenge Niederschlagsart
Fr, 05.03. 1:00 0.2 l/m2 in 6 Std. Regen
Do, 04.03. 19:00 0.1 l/m2 in 12 Std. Regen
Do, 04.03. 13:00 0.0 l/m2 in 6 Std. -
Do, 04.03. 7:00 0.0 l/m2 in 12 Std. -
Do, 04.03. 1:00 0.0 l/m2 in 6 Std. -
Mi, 03.03. 19:00 0.0 l/m2 in 12 Std. -
Mi, 03.03. 13:00 0.0 l/m2 in 6 Std. -
Mi, 03.03. 7:00 0.0 l/m2 in 12 Std. -
Ortszeit Niederschlagsmenge Niederschlagsart
Fr, 05.03. 2:30 0.3 l/m2 in 1 Std. -
Fr, 05.03. 2:20 keine Meldung -
Fr, 05.03. 2:10 keine Meldung -
Fr, 05.03. 2:00 0.6 l/m2 in 1 Std. Regen
Fr, 05.03. 1:50 keine Meldung -
Fr, 05.03. 1:40 keine Meldung -
Fr, 05.03. 1:30 0.4 l/m2 in 1 Std. -
Fr, 05.03. 1:00 0.2 l/m2 in 1 Std. Regen
Fr, 05.03. 0:30 0.1 l/m2 in 1 Std. Schneeregen
Fr, 05.03. 0:00 0.0 l/m2 in 1 Std. -
Do, 04.03. 23:30 0.0 l/m2 in 1 Std. -
Ortszeit Stärke Spitze Richtung
km/h Bft. km/h Grad Sektor
Fr, 05.03. 1:00 4 1 18 250° W
Do, 04.03. 19:00 4 1 32 220° SW
Do, 04.03. 13:00 4 1 11 90° O
Do, 04.03. 7:00 2 1 9 250° W
Do, 04.03. 1:00 4 1 7 220° SW
Mi, 03.03. 19:00 4 1 14 230° SW
Mi, 03.03. 13:00 0 0 7 - -
Mi, 03.03. 7:00 4 1 7 220° SW
Ortszeit Stärke Spitze Richtung
km/h Bft. km/h Grad Sektor
Fr, 05.03. 2:30 6 1 11 80° O
Fr, 05.03. 2:20 6 1 - 80° O
Fr, 05.03. 2:10 4 1 - 80° O
Fr, 05.03. 2:00 2 1 17 30° NO
Fr, 05.03. 1:50 2 1 - 30° NO
Fr, 05.03. 1:40 4 1 - 50° NO
Fr, 05.03. 1:30 6 1 17 180° S
Fr, 05.03. 1:00 4 1 18 250° W
Fr, 05.03. 0:30 7 2 14 200° S
Fr, 05.03. 0:00 4 1 7 190° S
Do, 04.03. 23:30 4 1 7 340° N
Ortszeit Untergrenze Bedeckung Gattung
total tief tief mittel hoch
Fr, 05.03. 1:00 630 m 8/8 8/8 - - -
Do, 04.03. 19:00 1380 m 7/8 7/8 - - -
Do, 04.03. 13:00 2100 m 8/8 5/8 - - -
Do, 04.03. 7:00 3300 m 8/8 8/8 - - -
Do, 04.03. 1:00 6300 m 8/8 8/8 - - -
Mi, 03.03. 19:00 6300 m 8/8 8/8 - - -
Mi, 03.03. 13:00 7500 m 8/8 0/8 - - -
Mi, 03.03. 7:00 6600 m 8/8 8/8 - - -
Ortszeit Bedeckungsgrad in Achtel und Wolkenuntergrenze
Fr, 05.03. 2:30 4(540m) 7(1080m) 7(1800m)
Fr, 05.03. 2:20 4(540m) 7(1080m) 7(1800m)
Fr, 05.03. 2:10 2(630m) 7(1170m) 8(2700m)
Fr, 05.03. 2:00 2(780m) 8(1500m) 8(2700m)
Fr, 05.03. 1:50 2(780m) 8(1500m) 8(2700m)
Fr, 05.03. 1:40 2(750m) 6(1020m) 8(1320m)
Fr, 05.03. 1:30 7(990m) 7(1020m) 8(1410m)
Fr, 05.03. 1:00 2(630m) 6(990m) 8(1200m)
Fr, 05.03. 0:30 6(1020m) 7(1200m) 8(1410m)
Fr, 05.03. 0:00 6(1260m) 8(1500m) 8(1500m)
Do, 04.03. 23:30 5(1500m) 7(2100m) 8(2400m)
Ortszeit Luftdruck NN (hPa) Tendenz (hPa in 3 Std.)
Fr, 05.03. 1:00 1018 + 1,1
Do, 04.03. 19:00 1017 0,0
Do, 04.03. 13:00 1018 - 2,9
Do, 04.03. 7:00 1026 - 1,0
Do, 04.03. 1:00 1029 - 1,2
Mi, 03.03. 19:00 1030 - 0,2
Mi, 03.03. 13:00 1029 - 1,3
Mi, 03.03. 7:00 1036 + 0,4
Ortszeit Luftdruck NN (hPa) Tendenz (hPa in 3 Std.)
Fr, 05.03. 2:30 1019 + 0,8
Fr, 05.03. 2:20 1019 keine Meldung
Fr, 05.03. 2:10 1018 keine Meldung
Fr, 05.03. 2:00 1018 + 0,8
Fr, 05.03. 1:50 1018 keine Meldung
Fr, 05.03. 1:40 1018 keine Meldung
Fr, 05.03. 1:30 1018 + 0,9
Fr, 05.03. 1:00 1018 + 1,1
Fr, 05.03. 0:30 1018 + 1,1
Fr, 05.03. 0:00 1018 + 0,6
Do, 04.03. 23:30 1018 0,0
Ortszeit Schneehöhe (cm)
Fr, 05.03. 1:00 0
Do, 04.03. 19:00 0
Do, 04.03. 13:00 0
Do, 04.03. 7:00 0
Do, 04.03. 1:00 0
Mi, 03.03. 19:00 0
Mi, 03.03. 13:00 0
Mi, 03.03. 7:00 0
Ortszeit Schneehöhe (cm)
Fr, 05.03. 2:30 0
Fr, 05.03. 2:20 0
Fr, 05.03. 2:10 0
Fr, 05.03. 2:00 0
Fr, 05.03. 1:50 0
Fr, 05.03. 1:40 0
Fr, 05.03. 1:30 0
Fr, 05.03. 1:00 0
Fr, 05.03. 0:30 0
Fr, 05.03. 0:00 0
Do, 04.03. 23:30 0
Link zu dieser Seite / Seite empfehlen

Das Wetter in ...